Temperature
13 13 13 13 13 13 13 13 12 12 12 12 12 12 12 12 12 12 12 12 12 12 12 12 12 12 12 12 12 12 12 12 12 12 13 12 12 12 12 12 12 12 12
13 13 13 13 12 12 12 12 12 12 12 12 12 12 12 12 12 11 11 12 12 12 12 12 12 12 12 12 12 12 12 12 12 12 12 12 12 12 12 12 12 12 12
13 12 12 12 12 12 12 12 12 12 12 12 11 11 11 11 11 11 11 11 11 11 12 12 12 12 12 11 11 11 11 11 12 12 12 12 12 12 12 12 12 12 12
12 12 12 12 12 12 12 12 11 11 11 11 11 11 11 11 11 11 11 11 11 11 11 11 11 11 11 11 11 11 11 11 11 11 11 11 11 11 11 11 11 11 11
12 12 12 12 12 11 11 11 11 11 11 11 11 11 10 10 10 10 10 10 10 10 10 10 10 11 10 10 10 10 10 10 11 11 11 11 11 11 11 11 11 11 11
11 11 11 11 11 11 11 11 11 11 11 11 10 10 10 10 10 10 10 10 10 10 10 10 10 10 10 10 10 10 10 10 10 10 10 10 10 10 10 10 10 10 10
11 11 11 11 11 11 11 11 11 11 10 10 10 9 9 10 9 9 9 9 9 9 9 9 9 10 10 10 10 10 10 10 10 9 9 9 10 10 10 10 10 10 10
10 10 10 10 10 10 10 10 10 10 10 10 9 8 9 9 9 9 9 9 9 9 9 9 9 9 9 9 9 9 9 9 9 9 9 9 9 9 9 9 9 9 9
10 10 10 10 10 10 10 10 10 9 9 9 9 8 8 9 8 8 9 9 9 9 9 9 9 9 8 8 9 9 9 9 8 8 8 8 8 8 8 8 9 9 9
9 9 9 9 9 9 9 9 9 9 9 8 8 8 8 8 7 8 8 8 8 8 8 8 8 8 8 8 8 8 8 8 8 8 8 8 8 8 8 8 8 8 8
9 9 9 9 9 9 9 9 9 9 8 8 8 8 7 7 7 7 7 7 7 8 7 7 7 7 8 7 8 8 8 8 8 8 7 7 8 8 8 8 8 8 8
9 9 9 9 8 8 8 8 8 8 8 8 7 7 7 6 6 6 6 6 6 7 7 7 7 7 7 7 7 7 7 7 7 7 7 7 7 7 7 7 7 7 7
8 8 8 8 8 8 8 8 8 7 7 7 7 7 6 6 6 6 5 5 5 6 6 6 6 6 6 6 6 7 6 7 7 7 7 7 7 7 7 7 7 7 7
8 8 8 8 8 7 7 7 7 7 7 7 6 6 6 6 6 6 5 5 5 5 5 6 6 6 6 6 6 6 6 6 6 6 6 6 6 6 6 6 6 6 6
8 7 7 7 7 7 7 7 7 6 6 6 6 6 6 6 6 5 5 5 4 4 5 5 5 5 5 5 5 5 5 5 6 6 6 6 6 6 6 5 5 5 5
7 7 7 7 7 7 6 6 6 6 6 6 6 6 6 6 5 5 5 5 4 4 4 4 4 5 5 5 5 5 5 5 5 5 5 5 5 5 5 5 5 5 5
7 7 7 7 6 6 6 6 6 6 6 6 5 5 5 5 5 5 5 4 4 4 3 4 4 4 4 4 4 4 4 4 4 4 4 4 4 4 4 4 4 4 4
7 6 6 6 6 6 6 6 5 5 5 5 5 5 5 5 4 4 4 4 4 4 3 3 3 3 3 3 4 4 4 4 4 4 4 4 4 4 4 4 4 3 4
6 6 6 6 6 6 5 5 5 5 5 5 5 4 4 4 4 4 4 4 3 3 3 3 3 3 3 3 3 3 3 3 3 3 3 3 3 3 3 3 3 3 3
6 6 6 6 5 5 5 5 5 4 4 4 4 4 4 4 4 4 3 3 3 3 3 2 2 2 2 2 2 2 2 2 2 2 2 2 2 2 2 2 2 2 2
6 5 5 5 5 5 5 4 4 4 4 4 4 4 4 3 3 3 3 3 2 2 2 2 2 2 2 2 2 2 2 2 2 2 2 2 2 2 2 2 2 2 2
5 5 5 5 4 4 4 4 4 3 3 3 3 3 3 3 3 3 3 2 2 2 2 2 1 1 1 1 1 1 1 1 1 1 1 1 1 1 1 1 1 1 1
4 4 4 4 4 4 4 3 3 3 3 3 3 3 3 3 3 2 2 2 2 2 1 1 1 1 1 1 1 1 1 0 0 1 1 1 1 1 1 1 1 1 0
4 4 4 4 3 3 3 3 3 2 2 2 2 2 2 2 2 2 1 1 1 1 1 1 1 1 1 0 0 0 0 0 0 0 0 0 0 0 0 0 0 0 -0
3 3 3 3 3 3 3 3 2 2 2 2 2 2 2 2 2 1 1 1 1 1 1 1 0 0 0 0 -0 -0 -0 -1 -1 -0 -0 -1 -0 -0 -0 -0 -0 -0 -1
3 3 3 3 2 2 2 2 2 1 1 1 1 1 1 1 1 1 0 0 1 1 0 0 0 0 0 -0 -0 -1 -1 -1 -1 -1 -1 -1 -1 -1 -1 -1 -1 -1 -1
Wind_Speed
1 1 1 1 2 2 2 2 3 3 3 3 3 4 4 4 4 4 3 1 3 5 6 6 7 7 6 7 7 7 7 7 8 8 8 8 9 9 10 11 12 13 13
1 1 1 1 2 2 3 3 3 2 2 2 3 3 4 4 4 4 4 2 2 4 5 6 6 6 6 6 5 5 5 5 6 7 8 8 9 9 10 11 12 12 13
2 1 1 1 2 3 3 3 2 2 2 2 3 3 3 4 4 4 4 4 4 3 3 4 4 5 5 5 5 5 5 5 6 7 7 8 9 10 10 11 11 11 12
3 2 1 2 3 3 3 2 2 2 2 3 3 3 3 2 3 3 3 4 4 4 3 2 3 4 5 5 6 6 6 6 7 7 8 8 9 10 11 11 12 11 11
3 2 2 2 3 2 2 2 2 2 3 3 3 3 3 3 3 3 3 3 3 4 4 2 2 4 5 5 6 7 8 8 8 8 8 9 9 10 10 11 12 12 12
3 3 2 3 3 2 2 3 3 3 2 3 3 3 3 3 2 2 3 3 3 3 4 4 4 3 3 5 6 8 8 9 9 9 9 9 9 10 10 11 11 12 12
4 3 3 3 3 2 3 3 3 3 2 3 3 3 3 3 2 2 2 2 2 3 3 4 4 5 4 4 5 7 9 9 10 10 10 10 10 11 10 10 10 11 11
3 3 3 2 3 3 3 3 3 2 2 2 2 3 3 3 2 2 2 2 3 2 3 3 4 4 5 4 4 6 8 10 11 10 10 11 11 11 11 10 10 10 10
2 2 2 2 2 3 3 3 3 3 3 2 2 2 3 3 3 3 3 3 3 3 3 3 4 4 5 5 5 6 7 9 10 11 11 11 11 11 11 10 10 10 9
1 1 2 2 2 2 2 3 3 3 3 3 2 2 3 3 3 3 3 3 4 4 4 4 4 4 5 5 5 7 8 8 10 11 12 12 11 11 10 10 10 9 9
0 1 1 1 2 2 2 3 3 3 3 3 3 3 3 4 5 5 6 5 5 4 4 5 4 4 4 5 5 6 7 8 10 11 11 11 10 10 10 10 10 9 9
1 1 2 2 2 2 3 3 3 3 3 3 3 3 4 3 4 5 6 7 7 5 5 5 4 4 5 5 5 7 7 8 10 11 11 11 10 10 10 10 9 9 9
2 2 2 2 2 2 3 3 3 3 3 4 4 3 4 4 4 5 6 7 7 6 5 4 4 4 5 5 5 7 7 8 9 10 10 10 10 10 9 9 9 9 10
3 3 3 3 3 3 3 3 3 3 3 4 4 4 4 4 4 5 5 6 7 6 6 6 4 4 4 5 6 7 7 7 9 10 10 10 10 9 9 9 8 9 9
3 3 4 3 3 4 4 4 3 4 4 4 4 5 4 4 4 5 5 5 5 7 7 5 4 4 5 6 6 7 7 7 9 9 10 9 9 9 9 9 9 9 9
4 4 4 4 4 4 4 4 4 4 5 5 4 5 5 5 4 4 5 5 6 6 7 5 6 6 6 6 7 8 8 9 9 9 9 9 9 9 9 8 8 8 9
5 5 5 5 6 5 5 5 5 5 6 5 5 6 6 6 5 5 4 5 5 6 8 7 6 6 7 8 7 7 8 8 7 8 9 10 9 9 9 8 8 8 8
6 6 6 7 7 6 6 6 7 6 7 7 7 6 7 5 6 5 5 6 6 6 7 9 7 6 7 8 8 8 7 7 8 8 9 9 9 9 8 8 8 8 8
7 7 7 7 7 7 7 7 7 8 8 8 7 7 7 7 7 6 6 6 6 6 6 8 8 6 6 6 7 7 8 7 7 7 8 8 8 9 9 8 8 8 7
7 7 8 8 8 8 8 8 8 8 9 8 8 8 8 8 8 8 7 7 7 7 7 7 7 7 6 6 6 6 6 6 6 6 7 7 8 9 9 8 8 8 7
8 8 8 8 8 8 8 8 8 9 9 9 9 9 9 9 9 9 7 7 7 7 6 7 7 7 6 5 5 5 7 7 7 5 6 6 6 6 6 7 8 8 8
8 8 8 9 9 8 9 11 10 9 9 10 10 10 9 9 10 11 12 11 10 9 8 7 7 8 8 7 6 6 6 6 5 3 5 6 5 5 5 5 6 8 9
8 9 9 9 10 10 10 12 12 10 10 10 10 9 8 8 9 9 10 11 11 13 12 10 10 10 9 7 7 7 7 7 7 5 5 6 5 5 4 5 7 8 9
8 9 9 10 10 10 10 12 12 11 11 11 11 10 10 10 8 8 8 9 9 10 10 9 10 9 8 7 7 7 8 8 7 5 4 5 5 5 5 5 5 6 8
8 9 9 9 10 10 10 12 12 9 10 11 10 10 10 10 10 10 9 9 9 8 7 9 10 9 9 8 7 5 5 5 6 4 3 4 4 5 5 5 4 6 8
9 8 9 9 10 11 10 12 12 8 9 9 9 9 11 12 11 11 10 9 10 9 7 6 7 8 8 7 8 7 6 6 5 4 2 3 3 3 4 3 4 5 6
Wind_Direction
77 42 20 10 353 336 324 313 302 312 306 307 301 298 294 286 281 276 271 247 285 293 292 288 285 285 286 284 285 280 273 268 267 266 267 269 271 270 269 268 268 265 263
51 31 12 1 352 338 321 309 308 307 303 303 300 299 296 289 282 283 287 267 251 285 297 296 294 293 294 297 298 298 293 292 287 279 274 273 273 273 271 271 272 271 268
38 14 5 356 344 334 327 315 316 304 299 295 291 298 300 296 290 290 292 292 285 267 279 295 298 302 305 305 305 305 301 299 295 294 288 281 277 274 271 270 271 272 272
42 24 5 356 343 334 332 327 315 304 300 298 300 303 296 293 289 296 296 294 293 292 277 284 294 307 311 310 310 310 309 306 300 295 292 291 290 283 277 274 273 272 274
43 36 12 355 343 337 339 337 321 311 303 305 305 299 294 286 284 292 295 299 299 299 297 291 271 287 301 307 311 310 308 306 301 296 294 291 289 288 285 281 279 276 276
41 33 19 1 351 340 340 338 328 318 306 304 298 292 284 278 274 284 295 306 317 311 307 305 292 287 281 296 307 308 306 303 302 297 296 296 294 292 289 284 283 281 280
35 32 20 7 358 346 336 333 330 315 320 318 291 286 269 259 261 285 306 312 322 323 318 315 311 306 301 292 300 305 306 304 303 301 299 297 294 295 292 290 288 283 282
31 20 17 7 360 345 337 340 338 320 319 331 303 288 275 245 229 280 281 304 311 318 323 326 325 318 309 304 316 316 311 306 306 307 305 301 295 294 291 290 289 291 290
34 16 6 356 351 345 340 334 326 311 300 300 307 287 283 280 302 250 268 283 297 303 307 313 313 312 309 305 310 319 316 308 307 308 306 304 302 297 293 291 291 293 295
26 17 352 343 337 329 325 327 315 300 290 281 289 291 288 295 281 282 263 270 287 293 297 301 306 308 307 304 308 322 322 315 308 306 303 304 305 302 299 296 297 300 300
9 356 330 328 321 309 308 308 311 301 292 287 285 283 277 278 272 276 283 289 288 284 292 293 294 295 297 300 307 326 321 317 316 313 310 309 311 311 310 307 305 303 305
302 312 302 305 305 299 298 300 297 292 288 287 285 280 275 272 275 272 277 289 293 291 290 288 288 292 296 298 308 327 315 310 310 311 310 309 311 312 313 312 312 307 304
288 292 281 282 286 285 287 289 287 282 278 277 276 275 275 274 278 277 278 284 288 290 282 277 279 290 299 301 302 314 305 313 312 310 312 314 317 316 312 308 307 313 314
267 276 271 270 275 277 278 278 278 278 277 272 271 271 272 274 272 267 271 282 287 283 275 276 281 284 297 299 306 303 299 309 314 314 312 314 317 315 312 308 307 309 312
263 264 265 270 271 269 270 273 271 274 276 275 273 270 269 269 269 268 265 265 275 286 286 284 287 290 302 302 306 299 298 308 307 307 305 306 308 309 308 307 309 311 312
251 255 260 263 265 265 264 263 266 266 268 272 274 272 271 271 268 265 262 260 258 268 279 287 287 297 300 295 300 297 298 301 296 298 298 297 299 300 303 305 306 308 310
252 253 254 254 255 257 257 256 258 261 262 267 267 268 269 272 271 268 266 264 261 261 272 282 284 293 293 293 295 295 295 293 292 295 296 292 290 293 297 299 301 303 303
250 249 251 250 251 253 253 253 256 256 257 261 263 264 267 268 267 268 266 265 265 263 271 280 284 286 286 292 294 294 294 290 289 292 290 286 284 288 290 291 295 298 303
249 247 247 248 249 249 250 252 255 256 256 260 262 261 264 264 264 264 265 266 266 269 267 274 282 285 285 288 293 291 289 288 289 290 285 280 276 281 280 282 289 293 297
250 250 249 250 250 249 249 250 253 256 258 258 258 258 259 258 261 264 264 265 267 268 266 269 276 282 284 287 286 288 290 289 289 290 282 281 275 272 271 275 278 283 286
253 254 254 253 251 250 248 248 252 255 258 259 257 256 256 256 260 260 262 264 263 263 265 268 273 278 278 282 280 281 287 292 285 280 287 284 279 272 271 270 268 273 277
259 257 255 255 254 252 245 246 253 258 257 258 260 259 257 252 252 254 257 259 258 259 261 264 268 270 274 277 279 278 286 290 284 283 293 288 282 276 277 279 281 278 276
261 259 259 257 258 257 249 250 250 256 258 258 259 260 258 254 253 257 256 254 254 253 256 261 266 267 273 274 275 275 274 276 279 293 296 283 279 278 281 282 286 276 278
262 262 261 259 260 259 251 252 253 254 258 258 257 257 257 258 252 253 260 261 261 257 251 252 259 267 271 275 268 271 277 278 278 275 272 274 285 283 285 276 273 282 286
265 263 262 260 260 261 250 250 251 256 257 258 257 255 254 256 251 247 252 258 263 263 254 249 257 264 270 270 269 268 267 270 274 264 249 268 285 292 287 272 264 277 287
267 268 264 262 261 263 257 250 248 252 258 261 261 257 249 250 253 246 248 253 257 260 258 259 256 257 260 259 256 254 258 260 267 267 237 257 279 297 291 272 274 282 283
Height
1531 1531 1530 1530 1530 1529 1529 1528 1528 1528 1527 1527 1526 1525 1525 1525 1524 1523 1522 1521 1521 1520 1520 1520 1519 1519 1518 1518 1518 1517 1516 1516 1515 1515 1514 1514 1514 1513 1513 1512 1512 1511 1511
1529 1529 1529 1528 1528 1528 1527 1527 1526 1525 1525 1524 1524 1523 1523 1522 1521 1521 1520 1519 1518 1517 1517 1516 1516 1516 1515 1515 1514 1514 1513 1512 1512 1511 1511 1511 1510 1510 1509 1509 1508 1508 1507
1527 1527 1527 1527 1526 1525 1525 1525 1524 1523 1523 1522 1522 1521 1520 1520 1519 1518 1517 1516 1515 1514 1514 1513 1513 1512 1512 1511 1511 1511 1510 1509 1509 1508 1508 1507 1507 1506 1506 1505 1504 1504 1503
1525 1526 1525 1525 1524 1524 1523 1523 1522 1522 1521 1520 1520 1519 1518 1517 1516 1516 1515 1514 1513 1512 1511 1510 1510 1509 1509 1508 1508 1507 1507 1506 1505 1505 1504 1504 1503 1502 1502 1501 1500 1500 1499
1524 1524 1524 1524 1523 1522 1522 1521 1521 1520 1519 1518 1517 1516 1516 1515 1514 1513 1512 1511 1510 1509 1509 1508 1507 1506 1505 1505 1504 1504 1503 1502 1501 1501 1500 1500 1499 1498 1498 1497 1496 1496 1495
1523 1523 1522 1522 1522 1521 1520 1519 1519 1518 1517 1516 1515 1514 1513 1512 1511 1511 1510 1509 1508 1507 1506 1505 1504 1503 1502 1501 1501 1500 1499 1499 1498 1497 1496 1496 1495 1494 1493 1493 1492 1491 1490
1521 1521 1521 1520 1520 1519 1519 1518 1517 1516 1515 1514 1513 1512 1511 1510 1509 1508 1507 1507 1505 1504 1503 1502 1501 1500 1499 1498 1497 1496 1495 1494 1494 1493 1492 1491 1490 1490 1489 1488 1487 1486 1486
1520 1520 1519 1518 1518 1517 1517 1516 1515 1514 1513 1512 1512 1511 1511 1510 1507 1506 1505 1504 1503 1502 1501 1499 1498 1497 1495 1494 1493 1492 1491 1490 1489 1489 1488 1487 1486 1485 1484 1483 1482 1482 1481
1518 1518 1518 1517 1516 1515 1514 1513 1513 1512 1511 1510 1510 1510 1510 1508 1506 1504 1503 1502 1501 1500 1498 1497 1495 1494 1493 1491 1489 1488 1487 1486 1485 1484 1484 1483 1481 1480 1479 1478 1478 1477 1476
1517 1516 1516 1515 1514 1513 1512 1511 1510 1509 1509 1508 1507 1507 1507 1506 1505 1503 1501 1500 1498 1497 1496 1494 1493 1491 1490 1488 1486 1485 1483 1482 1481 1480 1479 1478 1477 1476 1474 1474 1472 1471 1471
1515 1514 1514 1513 1512 1511 1510 1509 1508 1507 1506 1505 1504 1504 1503 1503 1502 1501 1499 1497 1495 1494 1492 1491 1489 1488 1486 1485 1483 1481 1480 1478 1477 1476 1475 1473 1472 1471 1470 1469 1468 1466 1466
1512 1512 1511 1510 1510 1509 1508 1507 1505 1504 1503 1502 1501 1500 1500 1500 1499 1498 1496 1494 1492 1490 1489 1487 1486 1484 1483 1481 1479 1477 1476 1474 1473 1471 1470 1469 1467 1466 1465 1464 1463 1462 1460
1510 1509 1509 1508 1507 1506 1505 1504 1503 1502 1501 1500 1499 1498 1497 1496 1496 1495 1493 1491 1489 1487 1485 1484 1482 1481 1479 1477 1475 1473 1472 1470 1468 1467 1465 1464 1462 1461 1460 1459 1458 1456 1455
1507 1507 1506 1505 1504 1503 1502 1501 1500 1499 1498 1497 1495 1494 1493 1493 1492 1491 1490 1488 1486 1484 1482 1480 1479 1477 1475 1473 1471 1469 1467 1466 1464 1462 1461 1459 1457 1456 1455 1453 1452 1451 1450
1505 1504 1503 1502 1501 1500 1499 1498 1497 1496 1494 1493 1492 1491 1490 1489 1488 1487 1486 1485 1484 1481 1478 1476 1475 1473 1471 1469 1467 1465 1463 1461 1460 1458 1456 1454 1453 1451 1450 1448 1447 1446 1444
1501 1501 1500 1499 1498 1497 1496 1495 1494 1492 1491 1490 1488 1487 1486 1485 1484 1483 1482 1481 1479 1478 1475 1472 1471 1469 1467 1464 1463 1460 1458 1457 1455 1453 1451 1449 1448 1446 1445 1443 1442 1440 1439
1498 1497 1496 1495 1494 1493 1492 1491 1490 1489 1488 1486 1485 1484 1482 1481 1480 1478 1477 1476 1475 1473 1471 1468 1466 1464 1462 1460 1458 1456 1454 1452 1450 1448 1447 1445 1443 1441 1440 1438 1437 1436 1434
1494 1493 1492 1491 1490 1489 1488 1487 1486 1485 1483 1482 1481 1479 1478 1477 1475 1474 1473 1471 1470 1469 1467 1464 1461 1460 1458 1456 1453 1451 1449 1447 1445 1443 1442 1440 1438 1437 1435 1433 1432 1431 1429
1489 1488 1487 1486 1485 1484 1483 1482 1481 1480 1479 1477 1476 1475 1473 1472 1471 1470 1468 1467 1465 1464 1462 1460 1457 1455 1453 1451 1449 1447 1445 1443 1441 1439 1437 1435 1433 1432 1430 1429 1427 1426 1424
1484 1483 1482 1481 1480 1479 1478 1477 1476 1475 1473 1472 1471 1470 1469 1467 1466 1465 1463 1462 1460 1459 1457 1455 1452 1450 1448 1447 1445 1442 1440 1438 1436 1434 1432 1430 1428 1427 1425 1424 1422 1421 1419
1479 1478 1477 1475 1474 1473 1472 1471 1471 1469 1468 1467 1466 1465 1463 1462 1461 1459 1458 1457 1455 1454 1452 1450 1448 1446 1444 1442 1440 1438 1436 1434 1431 1430 1427 1426 1424 1422 1420 1419 1417 1416 1415
1473 1472 1471 1470 1468 1467 1467 1466 1465 1464 1462 1461 1460 1458 1457 1456 1455 1454 1453 1451 1450 1449 1447 1445 1443 1441 1439 1438 1436 1434 1432 1430 1427 1426 1423 1421 1420 1417 1415 1414 1413 1411 1410
1468 1466 1465 1464 1462 1461 1461 1460 1459 1458 1456 1455 1454 1452 1451 1450 1449 1448 1446 1445 1444 1442 1441 1440 1438 1436 1435 1433 1431 1429 1427 1425 1423 1421 1419 1416 1415 1413 1411 1409 1408 1406 1405
1461 1460 1459 1458 1456 1455 1455 1454 1453 1451 1450 1448 1447 1446 1445 1444 1443 1442 1440 1439 1437 1436 1435 1434 1432 1431 1430 1428 1426 1425 1422 1420 1418 1416 1414 1412 1410 1408 1406 1404 1403 1401 1399
1456 1454 1453 1452 1450 1449 1448 1447 1446 1445 1443 1442 1441 1440 1439 1438 1437 1436 1434 1432 1431 1430 1429 1428 1426 1425 1423 1422 1421 1419 1417 1415 1412 1411 1409 1408 1405 1403 1401 1399 1398 1396 1395
1450 1448 1447 1445 1444 1443 1442 1441 1440 1439 1437 1436 1435 1434 1432 1431 1431 1429 1428 1426 1424 1423 1423 1421 1420 1419 1417 1416 1415 1414 1412 1411 1408 1406 1404 1403 1401 1399 1396 1394 1393 1392 1390